Location: Gu�tanj
(46.5431°N, 14.9692°E)
Time: 20:08:17
(UTC+00:00)

Cosmos 1633 Rocket - Pass Details

Date: 03 March 2021
Orbit: 606 x 624 km, 82.5° (Epoch: 20 April)

Event Time Altitude Azimuth Distance (km) Brightness Sun altitude
Rises 17:56:04 0° 199° (SSW) 2,890 6.7 -12.3°
Reaches altitude 10° 17:58:20 10° 204° (SSW) 1,990 5.9 -12.7°
Maximum altitude 18:02:39 54° 282° (WNW) 763 3.9 -13.4°
Drops below altitude 10° 18:07:02 10° 0° (N) 2,009 5.7 -14.2°
Sets 18:09:19 0° 6° (N) 2,920 6.5 -14.6°
